Year,Month,Day,Hour,Minute,Value (Times are PST for temperature in C)
2012,07,25,00,00,13.50
2012,07,25,00,01,13.50
2012,07,25,00,02,13.50
2012,07,25,00,03,13.50
2012,07,25,00,04,13.50
2012,07,25,00,05,13.50
2012,07,25,00,06,13.40
2012,07,25,00,07,13.40
2012,07,25,00,08,13.40
2012,07,25,00,09,13.40
2012,07,25,00,10,13.40
2012,07,25,00,11,13.40
2012,07,25,00,12,13.30
2012,07,25,00,13,13.30
2012,07,25,00,14,13.30
2012,07,25,00,15,13.30
2012,07,25,00,16,13.30
2012,07,25,00,17,13.30
2012,07,25,00,18,13.30
2012,07,25,00,19,13.30
2012,07,25,00,20,13.30
2012,07,25,00,21,13.30
2012,07,25,00,22,13.30
2012,07,25,00,23,13.30
2012,07,25,00,24,13.30
2012,07,25,00,25,13.30
2012,07,25,00,26,13.30
2012,07,25,00,27,13.30
2012,07,25,00,28,13.30
2012,07,25,00,29,13.20
2012,07,25,00,30,13.20
2012,07,25,00,31,13.20
2012,07,25,00,32,13.20
2012,07,25,00,33,13.20
2012,07,25,00,34,13.20
2012,07,25,00,35,13.20
2012,07,25,00,36,13.20
2012,07,25,00,37,13.10
2012,07,25,00,38,13.10
2012,07,25,00,39,13.10
2012,07,25,00,40,13.10
2012,07,25,00,41,13.10
2012,07,25,00,42,13.10
2012,07,25,00,43,13.10
2012,07,25,00,44,13.00
2012,07,25,00,45,13.00
2012,07,25,00,46,13.00
2012,07,25,00,47,13.00
2012,07,25,00,48,13.00
2012,07,25,00,49,12.90
2012,07,25,00,50,13.00
2012,07,25,00,51,13.00
2012,07,25,00,52,13.00
2012,07,25,00,53,13.00
2012,07,25,00,54,13.00
2012,07,25,00,55,13.00
2012,07,25,00,56,12.90
2012,07,25,00,57,12.90
2012,07,25,00,58,12.90
2012,07,25,00,59,12.90
2012,07,25,01,00,12.90
2012,07,25,01,01,12.90
2012,07,25,01,02,12.90
2012,07,25,01,03,12.80
2012,07,25,01,04,12.80
2012,07,25,01,05,12.80
2012,07,25,01,06,12.80
2012,07,25,01,07,12.80
2012,07,25,01,08,12.80
2012,07,25,01,09,12.80
2012,07,25,01,10,12.80
2012,07,25,01,11,12.80
2012,07,25,01,12,12.80
2012,07,25,01,13,12.80
2012,07,25,01,14,12.70
2012,07,25,01,15,12.70
2012,07,25,01,16,12.70
2012,07,25,01,17,12.70
2012,07,25,01,18,12.70
2012,07,25,01,19,12.70
2012,07,25,01,20,12.70
2012,07,25,01,21,12.70
2012,07,25,01,22,12.70
2012,07,25,01,23,12.70
2012,07,25,01,24,12.70
2012,07,25,01,25,12.60
2012,07,25,01,26,12.60
2012,07,25,01,27,12.60
2012,07,25,01,28,12.60
2012,07,25,01,29,12.50
2012,07,25,01,30,12.50
2012,07,25,01,31,12.50
2012,07,25,01,32,12.50
2012,07,25,01,33,12.40
2012,07,25,01,34,12.40
2012,07,25,01,35,12.40
2012,07,25,01,36,12.40
2012,07,25,01,37,12.40
2012,07,25,01,38,12.40
2012,07,25,01,39,12.40
2012,07,25,01,40,12.40
2012,07,25,01,41,12.40
2012,07,25,01,42,12.40
2012,07,25,01,43,12.40
2012,07,25,01,44,12.40
2012,07,25,01,45,12.40
2012,07,25,01,46,12.40
2012,07,25,01,47,12.40
2012,07,25,01,48,12.40
2012,07,25,01,49,12.40
2012,07,25,01,50,12.40
2012,07,25,01,51,12.40
2012,07,25,01,52,12.40
2012,07,25,01,53,12.40
2012,07,25,01,54,12.40
2012,07,25,01,55,12.40
2012,07,25,01,56,12.40
2012,07,25,01,57,12.40
2012,07,25,01,58,12.40
2012,07,25,01,59,12.40
2012,07,25,02,00,12.40
2012,07,25,02,01,12.30
2012,07,25,02,02,12.30
2012,07,25,02,03,12.30
2012,07,25,02,04,12.30
2012,07,25,02,05,12.30
2012,07,25,02,06,12.30
2012,07,25,02,07,12.30
2012,07,25,02,08,12.30
2012,07,25,02,09,12.30
2012,07,25,02,10,12.30
2012,07,25,02,11,12.30
2012,07,25,02,12,12.30
2012,07,25,02,13,12.30
2012,07,25,02,14,12.30
2012,07,25,02,15,12.30
2012,07,25,02,16,12.30
2012,07,25,02,17,12.30
2012,07,25,02,18,12.20
2012,07,25,02,19,12.20
2012,07,25,02,20,12.20
2012,07,25,02,21,12.20
2012,07,25,02,22,12.20
2012,07,25,02,23,12.20
2012,07,25,02,24,12.20
2012,07,25,02,25,12.10
2012,07,25,02,26,12.10
2012,07,25,02,27,12.10
2012,07,25,02,28,12.10
2012,07,25,02,29,12.10
2012,07,25,02,30,12.10
2012,07,25,02,31,12.10
2012,07,25,02,32,12.10
2012,07,25,02,33,12.10
2012,07,25,02,34,12.10
2012,07,25,02,35,12.10
2012,07,25,02,36,12.10
2012,07,25,02,37,12.10
2012,07,25,02,38,12.10
2012,07,25,02,39,12.10
2012,07,25,02,40,12.10
2012,07,25,02,41,12.10
2012,07,25,02,42,12.10
2012,07,25,02,43,12.10
2012,07,25,02,44,12.10
2012,07,25,02,45,12.10
2012,07,25,02,46,12.10
2012,07,25,02,47,12.00
2012,07,25,02,48,12.00
2012,07,25,02,49,12.00
2012,07,25,02,50,12.00
2012,07,25,02,51,12.00
2012,07,25,02,52,11.90
2012,07,25,02,53,11.90
2012,07,25,02,54,11.90
2012,07,25,02,55,11.90
2012,07,25,02,56,11.90
2012,07,25,02,57,11.90
2012,07,25,02,58,11.90
2012,07,25,02,59,11.90
2012,07,25,03,00,11.90
2012,07,25,03,01,11.90
2012,07,25,03,02,11.90
2012,07,25,03,03,11.80
2012,07,25,03,04,11.80
2012,07,25,03,05,11.80
2012,07,25,03,06,11.80
2012,07,25,03,07,11.80
2012,07,25,03,08,11.80
2012,07,25,03,09,11.80
2012,07,25,03,10,11.80
2012,07,25,03,11,11.80
2012,07,25,03,12,11.80
2012,07,25,03,13,11.80
2012,07,25,03,14,11.80
2012,07,25,03,15,11.70
2012,07,25,03,16,11.70
2012,07,25,03,17,11.70
2012,07,25,03,18,11.70
2012,07,25,03,19,11.70
2012,07,25,03,20,11.70
2012,07,25,03,21,11.70
2012,07,25,03,22,11.70
2012,07,25,03,23,11.70
2012,07,25,03,24,11.60
2012,07,25,03,25,11.60
2012,07,25,03,26,11.60
2012,07,25,03,27,11.70
2012,07,25,03,28,11.70
2012,07,25,03,29,11.70
2012,07,25,03,30,11.70
2012,07,25,03,31,11.70
2012,07,25,03,32,11.70
2012,07,25,03,33,11.70
2012,07,25,03,34,11.70
2012,07,25,03,35,11.70
2012,07,25,03,36,11.70
2012,07,25,03,37,11.70
2012,07,25,03,38,11.60
2012,07,25,03,39,11.60
2012,07,25,03,40,11.60
2012,07,25,03,41,11.60
2012,07,25,03,42,11.60
2012,07,25,03,43,11.60
2012,07,25,03,44,11.60
2012,07,25,03,45,11.60
2012,07,25,03,46,11.60
2012,07,25,03,47,11.60
2012,07,25,03,48,11.60
2012,07,25,03,49,11.60
2012,07,25,03,50,11.60
2012,07,25,03,51,11.60
2012,07,25,03,52,11.50
2012,07,25,03,53,11.40
2012,07,25,03,54,11.40
2012,07,25,03,55,11.40
2012,07,25,03,56,11.40
2012,07,25,03,57,11.40
2012,07,25,03,58,11.40
2012,07,25,03,59,11.40
2012,07,25,04,00,11.40
2012,07,25,04,01,11.40
2012,07,25,04,02,11.40
2012,07,25,04,03,11.50
2012,07,25,04,04,11.60
2012,07,25,04,05,11.60
2012,07,25,04,06,11.60
2012,07,25,04,07,11.60
2012,07,25,04,08,11.60
2012,07,25,04,09,11.60
2012,07,25,04,10,11.60
2012,07,25,04,11,11.60
2012,07,25,04,12,11.50
2012,07,25,04,13,11.40
2012,07,25,04,14,11.40
2012,07,25,04,15,11.40
2012,07,25,04,16,11.40
2012,07,25,04,17,11.40
2012,07,25,04,18,11.40
2012,07,25,04,19,11.40
2012,07,25,04,20,11.40
2012,07,25,04,21,11.40
2012,07,25,04,22,11.40
2012,07,25,04,23,11.40
2012,07,25,04,24,11.40
2012,07,25,04,25,11.40
2012,07,25,04,26,11.40
2012,07,25,04,27,11.40
2012,07,25,04,28,11.40
2012,07,25,04,29,11.40
2012,07,25,04,30,11.40
2012,07,25,04,31,11.40
2012,07,25,04,32,11.40
2012,07,25,04,33,11.40
2012,07,25,04,34,11.40
2012,07,25,04,35,11.40
2012,07,25,04,36,11.30
2012,07,25,04,37,11.30
2012,07,25,04,38,11.30
2012,07,25,04,39,11.30
2012,07,25,04,40,11.30
2012,07,25,04,41,11.30
2012,07,25,04,42,11.30
2012,07,25,04,43,11.30
2012,07,25,04,44,11.30
2012,07,25,04,45,11.30
2012,07,25,04,46,11.30
2012,07,25,04,47,11.30
2012,07,25,04,48,11.20
2012,07,25,04,49,11.20
2012,07,25,04,50,11.20
2012,07,25,04,51,11.20
2012,07,25,04,52,11.20
2012,07,25,04,53,11.10
2012,07,25,04,54,11.10
2012,07,25,04,55,11.10
2012,07,25,04,56,11.10
2012,07,25,04,57,11.10
2012,07,25,04,58,11.10
2012,07,25,04,59,11.10
2012,07,25,05,00,11.10
2012,07,25,05,01,11.10
2012,07,25,05,02,11.10
2012,07,25,05,03,11.10
2012,07,25,05,04,11.10
2012,07,25,05,05,11.10
2012,07,25,05,06,11.10
2012,07,25,05,07,11.10
2012,07,25,05,08,11.10
2012,07,25,05,09,11.10
2012,07,25,05,10,11.10
2012,07,25,05,11,11.10
2012,07,25,05,12,11.10
2012,07,25,05,13,11.10
2012,07,25,05,14,11.10
2012,07,25,05,15,11.10
2012,07,25,05,16,11.10
2012,07,25,05,17,11.10
2012,07,25,05,18,11.10
2012,07,25,05,19,11.10
2012,07,25,05,20,11.10
2012,07,25,05,21,11.10
2012,07,25,05,22,11.10
2012,07,25,05,23,11.10
2012,07,25,05,24,11.10
2012,07,25,05,25,11.10
2012,07,25,05,26,11.10
2012,07,25,05,27,11.10
2012,07,25,05,28,11.10
2012,07,25,05,29,11.10
2012,07,25,05,30,11.10
2012,07,25,05,31,11.10
2012,07,25,05,32,11.10
2012,07,25,05,33,11.10
2012,07,25,05,34,11.10
2012,07,25,05,35,11.10
2012,07,25,05,36,11.00
2012,07,25,05,37,10.90
2012,07,25,05,38,10.90
2012,07,25,05,39,10.90
2012,07,25,05,40,10.90
2012,07,25,05,41,10.90
2012,07,25,05,42,10.90
2012,07,25,05,43,10.90
2012,07,25,05,44,10.90
2012,07,25,05,45,10.90
2012,07,25,05,46,10.90
2012,07,25,05,47,10.90
2012,07,25,05,48,10.90
2012,07,25,05,49,10.90
2012,07,25,05,50,10.90
2012,07,25,05,51,10.90
2012,07,25,05,52,10.90
2012,07,25,05,53,10.90
2012,07,25,05,54,10.90
2012,07,25,05,55,11.10
2012,07,25,05,56,11.10
2012,07,25,05,57,11.10
2012,07,25,05,58,11.10
2012,07,25,05,59,11.10
2012,07,25,06,00,11.10
2012,07,25,06,01,11.10
2012,07,25,06,02,11.10
2012,07,25,06,03,11.10
2012,07,25,06,04,11.10
2012,07,25,06,05,11.10
2012,07,25,06,06,11.10
2012,07,25,06,07,11.10
2012,07,25,06,08,11.10
2012,07,25,06,09,11.10
2012,07,25,06,10,11.10
2012,07,25,06,11,11.10
2012,07,25,06,12,11.10
2012,07,25,06,13,11.10
2012,07,25,06,14,11.10
2012,07,25,06,15,11.10
2012,07,25,06,16,11.10
2012,07,25,06,17,11.10
2012,07,25,06,18,11.10
2012,07,25,06,19,11.10
2012,07,25,06,20,11.10
2012,07,25,06,21,11.10
2012,07,25,06,22,11.10
2012,07,25,06,23,11.20
2012,07,25,06,24,11.20
2012,07,25,06,25,11.20
2012,07,25,06,26,11.20
2012,07,25,06,27,11.20
2012,07,25,06,28,11.20
2012,07,25,06,29,11.30
2012,07,25,06,30,11.30
2012,07,25,06,31,11.40
2012,07,25,06,32,11.40
2012,07,25,06,33,11.40
2012,07,25,06,34,11.40
2012,07,25,06,35,11.50
2012,07,25,06,36,11.60
2012,07,25,06,37,11.60
2012,07,25,06,38,11.60
2012,07,25,06,39,11.60
2012,07,25,06,40,11.60
2012,07,25,06,41,11.60
2012,07,25,06,42,11.70
2012,07,25,06,43,11.80
2012,07,25,06,44,11.80
2012,07,25,06,45,11.80
2012,07,25,06,46,11.90
2012,07,25,06,47,12.00
2012,07,25,06,48,12.00
2012,07,25,06,49,12.10
2012,07,25,06,50,12.20
2012,07,25,06,51,12.20
2012,07,25,06,52,12.30
2012,07,25,06,53,12.30
2012,07,25,06,54,12.30
2012,07,25,06,55,12.30
2012,07,25,06,56,12.40
2012,07,25,06,57,12.40
2012,07,25,06,58,12.50
2012,07,25,06,59,12.50
2012,07,25,07,00,12.60
2012,07,25,07,01,12.70
2012,07,25,07,02,12.70
2012,07,25,07,03,12.80
2012,07,25,07,04,12.90
2012,07,25,07,05,12.90
2012,07,25,07,06,13.00
2012,07,25,07,07,13.10
2012,07,25,07,08,13.20
2012,07,25,07,09,13.30
2012,07,25,07,10,13.30
2012,07,25,07,11,13.30
2012,07,25,07,12,13.50
2012,07,25,07,13,13.60
2012,07,25,07,14,13.60
2012,07,25,07,15,13.70
2012,07,25,07,16,13.70
2012,07,25,07,17,13.80
2012,07,25,07,18,13.90
2012,07,25,07,19,14.00
2012,07,25,07,20,14.20
2012,07,25,07,21,14.20
2012,07,25,07,22,14.40
2012,07,25,07,23,14.50
2012,07,25,07,24,14.60
2012,07,25,07,25,14.60
2012,07,25,07,26,14.70
2012,07,25,07,27,14.60
2012,07,25,07,28,14.70
2012,07,25,07,29,14.70
2012,07,25,07,30,14.60
2012,07,25,07,31,14.60
2012,07,25,07,32,14.70
2012,07,25,07,33,14.70
2012,07,25,07,34,14.80
2012,07,25,07,35,14.80
2012,07,25,07,36,14.90
2012,07,25,07,37,14.90
2012,07,25,07,38,15.00
2012,07,25,07,39,15.10
2012,07,25,07,40,15.10
2012,07,25,07,41,15.20
2012,07,25,07,42,15.30
2012,07,25,07,43,15.30
2012,07,25,07,44,15.50
2012,07,25,07,45,15.50
2012,07,25,07,46,15.60
2012,07,25,07,47,15.70
2012,07,25,07,48,15.80
2012,07,25,07,49,15.90
2012,07,25,07,50,16.00
2012,07,25,07,51,16.10
2012,07,25,07,52,16.20
2012,07,25,07,53,16.20
2012,07,25,07,54,16.30
2012,07,25,07,55,16.40
2012,07,25,07,56,16.50
2012,07,25,07,57,16.70
2012,07,25,07,58,16.80
2012,07,25,07,59,16.90
2012,07,25,08,00,17.00
2012,07,25,08,01,17.10
2012,07,25,08,02,17.20
2012,07,25,08,03,17.30
2012,07,25,08,04,17.40
2012,07,25,08,05,17.50
2012,07,25,08,06,17.60
2012,07,25,08,07,17.70
2012,07,25,08,08,17.70
2012,07,25,08,09,17.80
2012,07,25,08,10,17.80
2012,07,25,08,11,17.90
2012,07,25,08,12,17.90
2012,07,25,08,13,17.90
2012,07,25,08,14,18.00
2012,07,25,08,15,18.10
2012,07,25,08,16,18.20
2012,07,25,08,17,18.20
2012,07,25,08,18,18.30
2012,07,25,08,19,18.30
2012,07,25,08,20,18.40
2012,07,25,08,21,18.50
2012,07,25,08,22,18.60
2012,07,25,08,23,18.60
2012,07,25,08,24,18.60
2012,07,25,08,25,18.60
2012,07,25,08,26,18.60
2012,07,25,08,27,18.60
2012,07,25,08,28,18.70
2012,07,25,08,29,18.80
2012,07,25,08,30,18.90
2012,07,25,08,31,19.00
2012,07,25,08,32,19.10
2012,07,25,08,33,19.10
2012,07,25,08,34,19.20
2012,07,25,08,35,19.20
2012,07,25,08,36,19.30
2012,07,25,08,37,19.30
2012,07,25,08,38,19.30
2012,07,25,08,39,19.40
2012,07,25,08,40,19.40
2012,07,25,08,41,19.40
2012,07,25,08,42,19.30
2012,07,25,08,43,19.20
2012,07,25,08,44,19.30
2012,07,25,08,45,19.30
2012,07,25,08,46,19.20
2012,07,25,08,47,19.30
2012,07,25,08,48,19.20
2012,07,25,08,49,19.20
2012,07,25,08,50,19.20
2012,07,25,08,51,19.30
2012,07,25,08,52,19.30
2012,07,25,08,53,19.30
2012,07,25,08,54,19.30
2012,07,25,08,55,19.30
2012,07,25,08,56,19.30
2012,07,25,08,57,19.30
2012,07,25,08,58,19.30
2012,07,25,08,59,19.30
2012,07,25,09,00,19.40
2012,07,25,09,01,19.40
2012,07,25,09,02,19.30
2012,07,25,09,03,19.20
2012,07,25,09,04,19.10
2012,07,25,09,05,19.10
2012,07,25,09,06,18.90
2012,07,25,09,07,18.90
2012,07,25,09,08,18.90
2012,07,25,09,09,18.90
2012,07,25,09,10,19.00
2012,07,25,09,11,19.00
2012,07,25,09,12,18.90
2012,07,25,09,13,18.90
2012,07,25,09,14,18.90
2012,07,25,09,15,19.00
2012,07,25,09,16,19.10
2012,07,25,09,17,19.10
2012,07,25,09,18,19.20
2012,07,25,09,19,19.20
2012,07,25,09,20,19.20
2012,07,25,09,21,19.30
2012,07,25,09,22,19.20
2012,07,25,09,23,19.30
2012,07,25,09,24,19.20
2012,07,25,09,25,19.10
2012,07,25,09,26,19.10
2012,07,25,09,27,19.20
2012,07,25,09,28,19.20
2012,07,25,09,29,19.30
2012,07,25,09,30,19.30
2012,07,25,09,31,19.40
2012,07,25,09,32,19.40
2012,07,25,09,33,19.40
2012,07,25,09,34,19.40
2012,07,25,09,35,19.40
2012,07,25,09,36,19.30
2012,07,25,09,37,19.30
2012,07,25,09,38,19.40
2012,07,25,09,39,19.50
2012,07,25,09,40,19.40
2012,07,25,09,41,19.40
2012,07,25,09,42,19.30
2012,07,25,09,43,19.30
2012,07,25,09,44,19.40
2012,07,25,09,45,19.40
2012,07,25,09,46,19.40
2012,07,25,09,47,19.40
2012,07,25,09,48,19.40
2012,07,25,09,49,19.40
2012,07,25,09,50,19.50
2012,07,25,09,51,19.50
2012,07,25,09,52,19.50
2012,07,25,09,53,19.50
2012,07,25,09,54,19.50
2012,07,25,09,55,19.40
2012,07,25,09,56,19.40
2012,07,25,09,57,19.40
2012,07,25,09,58,19.40
2012,07,25,09,59,19.20
2012,07,25,10,00,19.20
2012,07,25,10,01,19.30
2012,07,25,10,02,19.40
2012,07,25,10,03,19.50
2012,07,25,10,04,19.60
2012,07,25,10,05,19.70
2012,07,25,10,06,19.90
2012,07,25,10,07,19.90
2012,07,25,10,08,20.10
2012,07,25,10,09,20.20
2012,07,25,10,10,20.30
2012,07,25,10,11,20.50
2012,07,25,10,12,20.50
2012,07,25,10,13,20.50
2012,07,25,10,14,20.40
2012,07,25,10,15,20.30
2012,07,25,10,16,20.30
2012,07,25,10,17,20.40
2012,07,25,10,18,20.50
2012,07,25,10,19,20.60
2012,07,25,10,20,20.70
2012,07,25,10,21,20.80
2012,07,25,10,22,20.80
2012,07,25,10,23,20.80
2012,07,25,10,24,20.80
2012,07,25,10,25,20.80
2012,07,25,10,26,20.80
2012,07,25,10,27,20.80
2012,07,25,10,28,20.70
2012,07,25,10,29,20.70
2012,07,25,10,30,20.70
2012,07,25,10,31,20.80
2012,07,25,10,32,20.80
2012,07,25,10,33,20.70
2012,07,25,10,34,20.70
2012,07,25,10,35,20.70
2012,07,25,10,36,20.70
2012,07,25,10,37,20.70
2012,07,25,10,38,20.70
2012,07,25,10,39,20.60
2012,07,25,10,40,20.60
2012,07,25,10,41,20.70
2012,07,25,10,42,20.80
2012,07,25,10,43,20.80
2012,07,25,10,44,20.80
2012,07,25,10,45,20.80
2012,07,25,10,46,20.80
2012,07,25,10,47,20.80
2012,07,25,10,48,20.80
2012,07,25,10,49,20.80
2012,07,25,10,50,20.70
2012,07,25,10,51,20.60
2012,07,25,10,52,20.60
2012,07,25,10,53,20.50
2012,07,25,10,54,20.30
2012,07,25,10,55,20.30
2012,07,25,10,56,20.30
2012,07,25,10,57,20.30
2012,07,25,10,58,20.30
2012,07,25,10,59,20.30
2012,07,25,11,00,20.30
2012,07,25,11,01,20.30
2012,07,25,11,02,20.30
2012,07,25,11,03,20.40
2012,07,25,11,04,20.40
2012,07,25,11,05,20.20
2012,07,25,11,06,20.20
2012,07,25,11,07,20.10
2012,07,25,11,08,20.10
2012,07,25,11,09,20.20
2012,07,25,11,10,20.20
2012,07,25,11,11,20.40
2012,07,25,11,12,20.40
2012,07,25,11,13,20.50
2012,07,25,11,14,20.50
2012,07,25,11,15,20.60
2012,07,25,11,16,20.70
2012,07,25,11,17,20.80
2012,07,25,11,18,20.90
2012,07,25,11,19,21.00
2012,07,25,11,20,21.10
2012,07,25,11,21,21.10
2012,07,25,11,22,21.10
2012,07,25,11,23,21.00
2012,07,25,11,24,21.00
2012,07,25,11,25,20.90
2012,07,25,11,26,20.90
2012,07,25,11,27,20.90
2012,07,25,11,28,20.80
2012,07,25,11,29,20.80
2012,07,25,11,30,20.80
2012,07,25,11,31,20.70
2012,07,25,11,32,20.70
2012,07,25,11,33,20.70
2012,07,25,11,34,20.70
2012,07,25,11,35,20.60
2012,07,25,11,36,20.60
2012,07,25,11,37,20.70
2012,07,25,11,38,20.70
2012,07,25,11,39,20.70
2012,07,25,11,40,20.70
2012,07,25,11,41,20.80
2012,07,25,11,42,21.10
2012,07,25,11,43,21.20
2012,07,25,11,44,21.30
2012,07,25,11,45,21.40
2012,07,25,11,46,21.50
2012,07,25,11,47,21.60
2012,07,25,11,48,21.50
2012,07,25,11,49,21.30
2012,07,25,11,50,21.30
2012,07,25,11,51,21.40
2012,07,25,11,52,21.40
2012,07,25,11,53,21.60
2012,07,25,11,54,21.60
2012,07,25,11,55,21.70
2012,07,25,11,56,21.80
2012,07,25,11,57,21.90
2012,07,25,11,58,22.00
2012,07,25,11,59,22.10
2012,07,25,12,00,22.30
2012,07,25,12,01,22.40
2012,07,25,12,02,22.60
2012,07,25,12,03,22.60
2012,07,25,12,04,22.60
2012,07,25,12,05,22.60
2012,07,25,12,06,22.60
2012,07,25,12,07,22.60
2012,07,25,12,08,22.60
2012,07,25,12,09,22.50
2012,07,25,12,10,22.40
2012,07,25,12,11,22.30
2012,07,25,12,12,22.30
2012,07,25,12,13,22.10
2012,07,25,12,14,22.10
2012,07,25,12,15,22.00
2012,07,25,12,16,22.00
2012,07,25,12,17,21.90
2012,07,25,12,18,22.00
2012,07,25,12,19,22.00
2012,07,25,12,20,21.90
2012,07,25,12,21,21.90
2012,07,25,12,22,21.90
2012,07,25,12,23,21.90
2012,07,25,12,24,21.90
2012,07,25,12,25,21.70
2012,07,25,12,26,21.60
2012,07,25,12,27,21.60
2012,07,25,12,28,21.60
2012,07,25,12,29,21.60
2012,07,25,12,30,21.60
2012,07,25,12,31,21.60
2012,07,25,12,32,21.60
2012,07,25,12,33,21.70
2012,07,25,12,34,21.70
2012,07,25,12,35,21.70
2012,07,25,12,36,21.90
2012,07,25,12,37,22.10
2012,07,25,12,38,22.10
2012,07,25,12,39,22.20
2012,07,25,12,40,22.20
2012,07,25,12,41,22.00
2012,07,25,12,42,22.00
2012,07,25,12,43,22.00
2012,07,25,12,44,22.10
2012,07,25,12,45,22.10
2012,07,25,12,46,22.10
2012,07,25,12,47,22.10
2012,07,25,12,48,22.10
2012,07,25,12,49,22.10
2012,07,25,12,50,22.10
2012,07,25,12,51,22.20
2012,07,25,12,52,22.30
2012,07,25,12,53,22.40
2012,07,25,12,54,22.40
2012,07,25,12,55,22.40
2012,07,25,12,56,22.50
2012,07,25,12,57,22.60
2012,07,25,12,58,22.50
2012,07,25,12,59,22.50
2012,07,25,13,00,22.40
2012,07,25,13,01,22.40
2012,07,25,13,02,22.30
2012,07,25,13,03,22.30
2012,07,25,13,04,22.30
2012,07,25,13,05,22.40
2012,07,25,13,06,22.40
2012,07,25,13,07,22.40
2012,07,25,13,08,22.50
2012,07,25,13,09,22.40
2012,07,25,13,10,22.40
2012,07,25,13,11,22.40
2012,07,25,13,12,22.50
2012,07,25,13,13,22.70
2012,07,25,13,14,22.80
2012,07,25,13,15,22.80
2012,07,25,13,16,22.70
2012,07,25,13,17,22.60
2012,07,25,13,18,22.50
2012,07,25,13,19,22.50
2012,07,25,13,20,22.50
2012,07,25,13,21,22.50
2012,07,25,13,22,22.60
2012,07,25,13,23,22.70
2012,07,25,13,24,22.80
2012,07,25,13,25,22.90
2012,07,25,13,26,22.90
2012,07,25,13,27,22.90
2012,07,25,13,28,22.90
2012,07,25,13,29,22.90
2012,07,25,13,30,22.90
2012,07,25,13,31,22.90
2012,07,25,13,32,22.90
2012,07,25,13,33,22.90
2012,07,25,13,34,22.90
2012,07,25,13,35,22.90
2012,07,25,13,36,22.90
2012,07,25,13,37,22.90
2012,07,25,13,38,22.80
2012,07,25,13,39,22.70
2012,07,25,13,40,22.60
2012,07,25,13,41,22.50
2012,07,25,13,42,22.50
2012,07,25,13,43,22.40
2012,07,25,13,44,22.30
2012,07,25,13,45,22.40
2012,07,25,13,46,22.50
2012,07,25,13,47,22.60
2012,07,25,13,48,22.70
2012,07,25,13,49,22.80
2012,07,25,13,50,22.70
2012,07,25,13,51,22.80
2012,07,25,13,52,22.90
2012,07,25,13,53,22.90
2012,07,25,13,54,22.90
2012,07,25,13,55,22.90
2012,07,25,13,56,22.80
2012,07,25,13,57,22.80
2012,07,25,13,58,22.80
2012,07,25,13,59,22.90
2012,07,25,14,00,22.90
2012,07,25,14,01,23.00
2012,07,25,14,02,23.20
2012,07,25,14,03,23.20
2012,07,25,14,04,23.10
2012,07,25,14,05,23.10
2012,07,25,14,06,23.10
2012,07,25,14,07,23.10
2012,07,25,14,08,23.20
2012,07,25,14,09,23.30
2012,07,25,14,10,23.30
2012,07,25,14,11,23.30
2012,07,25,14,12,23.30
2012,07,25,14,13,23.40
2012,07,25,14,14,23.60
2012,07,25,14,15,23.40
2012,07,25,14,16,23.30
2012,07,25,14,17,23.10
2012,07,25,14,18,23.10
2012,07,25,14,19,23.10
2012,07,25,14,20,23.20
2012,07,25,14,21,23.20
2012,07,25,14,22,23.10
2012,07,25,14,23,23.20
2012,07,25,14,24,23.20
2012,07,25,14,25,23.10
2012,07,25,14,26,23.10
2012,07,25,14,27,23.20
2012,07,25,14,28,23.30
2012,07,25,14,29,23.40
2012,07,25,14,30,23.30
2012,07,25,14,31,23.30
2012,07,25,14,32,23.30
2012,07,25,14,33,23.30
2012,07,25,14,34,23.10
2012,07,25,14,35,22.90
2012,07,25,14,36,22.80
2012,07,25,14,37,22.80
2012,07,25,14,38,22.80
2012,07,25,14,39,22.70
2012,07,25,14,40,22.70
2012,07,25,14,41,22.70
2012,07,25,14,42,22.70
2012,07,25,14,43,22.70
2012,07,25,14,44,22.90
2012,07,25,14,45,23.10
2012,07,25,14,46,23.30
2012,07,25,14,47,23.40
2012,07,25,14,48,23.40
2012,07,25,14,49,23.30
2012,07,25,14,50,23.30
2012,07,25,14,51,23.20
2012,07,25,14,52,23.10
2012,07,25,14,53,23.00
2012,07,25,14,54,22.90
2012,07,25,14,55,22.90
2012,07,25,14,56,22.90
2012,07,25,14,57,22.80
2012,07,25,14,58,22.80
2012,07,25,14,59,22.80
2012,07,25,15,00,22.90
2012,07,25,15,01,22.90
2012,07,25,15,02,22.90
2012,07,25,15,03,22.90
2012,07,25,15,04,22.90
2012,07,25,15,05,22.90
2012,07,25,15,06,22.80
2012,07,25,15,07,22.70
2012,07,25,15,08,22.60
2012,07,25,15,09,22.60
2012,07,25,15,10,22.60
2012,07,25,15,11,22.70
2012,07,25,15,12,22.60
2012,07,25,15,13,22.50
2012,07,25,15,14,22.50
2012,07,25,15,15,22.40
2012,07,25,15,16,22.40
2012,07,25,15,17,22.50
2012,07,25,15,18,22.50
2012,07,25,15,19,22.40
2012,07,25,15,20,22.40
2012,07,25,15,21,22.40
2012,07,25,15,22,22.30
2012,07,25,15,23,22.20
2012,07,25,15,24,22.20
2012,07,25,15,25,22.20
2012,07,25,15,26,22.30
2012,07,25,15,27,22.40
2012,07,25,15,28,22.40
2012,07,25,15,29,22.40
2012,07,25,15,30,22.40
2012,07,25,15,31,22.30
2012,07,25,15,32,22.30
2012,07,25,15,33,22.50
2012,07,25,15,34,22.50
2012,07,25,15,35,22.50
2012,07,25,15,36,22.50
2012,07,25,15,37,22.60
2012,07,25,15,38,22.60
2012,07,25,15,39,22.60
2012,07,25,15,40,22.70
2012,07,25,15,41,22.70
2012,07,25,15,42,22.70
2012,07,25,15,43,22.70
2012,07,25,15,44,22.70
2012,07,25,15,45,22.70
2012,07,25,15,46,22.60
2012,07,25,15,47,22.60
2012,07,25,15,48,22.70
2012,07,25,15,49,22.70
2012,07,25,15,50,22.60
2012,07,25,15,51,22.60
2012,07,25,15,52,22.70
2012,07,25,15,53,22.90
2012,07,25,15,54,22.90
2012,07,25,15,55,22.90
2012,07,25,15,56,22.90
2012,07,25,15,57,22.90
2012,07,25,15,58,23.00
2012,07,25,15,59,23.10
2012,07,25,16,00,23.10
2012,07,25,16,01,23.10
2012,07,25,16,02,23.10
2012,07,25,16,03,23.00
2012,07,25,16,04,22.90
2012,07,25,16,05,22.90
2012,07,25,16,06,22.80
2012,07,25,16,07,22.70
2012,07,25,16,08,22.60
2012,07,25,16,09,22.50
2012,07,25,16,10,22.50
2012,07,25,16,11,22.50
2012,07,25,16,12,22.60
2012,07,25,16,13,22.70
2012,07,25,16,14,22.70
2012,07,25,16,15,22.70
2012,07,25,16,16,22.80
2012,07,25,16,17,22.80
2012,07,25,16,18,22.90
2012,07,25,16,19,22.90
2012,07,25,16,20,22.90
2012,07,25,16,21,22.90
2012,07,25,16,22,23.00
2012,07,25,16,23,23.20
2012,07,25,16,24,23.30
2012,07,25,16,25,23.30
2012,07,25,16,26,23.20
2012,07,25,16,27,23.10
2012,07,25,16,28,23.00
2012,07,25,16,29,22.90
2012,07,25,16,30,22.90
2012,07,25,16,31,22.90
2012,07,25,16,32,22.80
2012,07,25,16,33,22.80
2012,07,25,16,34,22.60
2012,07,25,16,35,22.50
2012,07,25,16,36,22.40
2012,07,25,16,37,22.30
2012,07,25,16,38,22.30
2012,07,25,16,39,22.40
2012,07,25,16,40,22.40
2012,07,25,16,41,22.40
2012,07,25,16,42,22.40
2012,07,25,16,43,22.40
2012,07,25,16,44,22.30
2012,07,25,16,45,22.30
2012,07,25,16,46,22.30
2012,07,25,16,47,22.20
2012,07,25,16,48,22.20
2012,07,25,16,49,22.10
2012,07,25,16,50,22.10
2012,07,25,16,51,22.10
2012,07,25,16,52,22.10
2012,07,25,16,53,22.10
2012,07,25,16,54,22.30
2012,07,25,16,55,22.30
2012,07,25,16,56,22.40
2012,07,25,16,57,22.40
2012,07,25,16,58,22.20
2012,07,25,16,59,22.10
2012,07,25,17,00,22.10
2012,07,25,17,01,22.00
2012,07,25,17,02,21.90
2012,07,25,17,03,21.80
2012,07,25,17,04,21.80
2012,07,25,17,05,21.80
2012,07,25,17,06,21.70
2012,07,25,17,07,21.70
2012,07,25,17,08,21.70
2012,07,25,17,09,21.70
2012,07,25,17,10,21.70
2012,07,25,17,11,21.70
2012,07,25,17,12,21.70
2012,07,25,17,13,21.60
2012,07,25,17,14,21.60
2012,07,25,17,15,21.70
2012,07,25,17,16,21.70
2012,07,25,17,17,21.70
2012,07,25,17,18,21.60
2012,07,25,17,19,21.60